| time (UTC) | temp F | wind direction | speed knots | gust knots | rain 1hr in | rain 24hr in | rain mn in | humidity % | barometer mb |
| 20260905152736 | 75 | 22 | 1.7 | 6.1 | 0.00 | 0.00 | 0.00 | 91 | 1014.7 |
| 20260905152456 | 76 | 359 | 2.6 | 3.5 | 0.00 | 0.00 | 0.00 | 90 | 1014.7 |
| 20260905151735 | 76 | 71 | 2.6 | 4.3 | 0.00 | 0.00 | 0.00 | 93 | 1014.3 |
| 20260905151234 | 75 | 31 | 1.7 | 7.8 | 0.00 | 0.00 | 0.00 | 92 | 1014.3 |
| 20260905150734 | 75 | 72 | 2.6 | 7.8 | 0.00 | 0.00 | 0.00 | 93 | 1014.3 |
| 20260905150502 | 74 | 81 | 1.7 | 6.1 | 0.00 | 0.00 | 0.00 | 94 | 1014.3 |
| 20260905145733 | 74 | 30 | 1.7 | 5.2 | 0.00 | 0.00 | 0.00 | 94 | 1014.3 |
| 20260905145231 | 74 | 125 | 1.7 | 5.2 | 0.00 | 0.00 | 0.00 | 95 | 1014.3 |
| 20260905144731 | 74 | 9 | 0.0 | 7.0 | 0.00 | 0.00 | 0.00 | 96 | 1014.3 |
| 20260905144230 | 73 | 70 | 5.2 | 7.0 | 0.00 | 0.00 | 0.00 | 96 | 1014.3 |
| 20260905143730 | 73 | 62 | 1.7 | 6.1 | 0.00 | 0.00 | 0.00 | 96 | 1014.3 |
| 20260905143230 | 73 | 1 | 1.7 | 6.1 | 0.00 | 0.00 | 0.00 | 97 | 1014.3 |
| 20260905142728 | 73 | 70 | 2.6 | 5.2 | 0.00 | 0.00 | 0.00 | 97 | 1014.0 |
| 20260905142229 | 73 | 79 | 2.6 | 5.2 | 0.00 | 0.00 | 0.00 | 97 | 1014.0 |
| 20260905141730 | 72 | 27 | 3.5 | 7.8 | 0.00 | 0.00 | 0.00 | 97 | 1014.3 |
| 20260905141227 | 72 | 57 | 2.6 | 7.8 | 0.00 | 0.00 | 0.00 | 97 | 1014.3 |
| 20260905140728 | 72 | 13 | 2.6 | 7.8 | 0.00 | 0.00 | 0.00 | 98 | 1014.3 |
| 20260905140225 | 72 | 75 | 5.2 | 7.8 | 0.00 | 0.00 | 0.00 | 98 | 1014.0 |
| 20260905135727 | 72 | 61 | 4.3 | 7.8 | 0.00 | 0.00 | 0.00 | 98 | 1014.0 |
| 20260905135226 | 72 | 104 | 2.6 | 7.8 | 0.00 | 0.00 | 0.00 | 98 | 1014.0 |
| 20260905134725 | 72 | 16 | 0.9 | 7.8 | 0.00 | 0.00 | 0.00 | 98 | 1014.3 |
| 20260905134225 | 72 | 84 | 3.5 | 5.2 | 0.00 | 0.00 | 0.00 | 98 | 1014.0 |
| 20260905133725 | 72 | 59 | 3.5 | 8.7 | 0.00 | 0.00 | 0.00 | 98 | 1014.0 |
| 20260905133224 | 72 | 84 | 3.5 | 8.7 | 0.00 | 0.00 | 0.00 | 98 | 1014.0 |
| 20260905132735 | 72 | 343 | 4.3 | 5.2 | 0.00 | 0.00 | 0.00 | 98 | 1014.3 |
| 20260905132224 | 73 | 65 | 2.6 | 5.2 | 0.00 | 0.00 | 0.00 | 98 | 1014.0 |
| 20260905131722 | 73 | 78 | 2.6 | 5.2 | 0.00 | 0.00 | 0.00 | 98 | 1014.3 |
| 20260905131220 | 73 | 78 | 2.6 | 4.3 | 0.00 | 0.00 | 0.00 | 98 | 1014.3 |
| 20260905130723 | 73 | 56 | 1.7 | 3.5 | 0.00 | 0.00 | 0.00 | 98 | 1014.3 |
| 20260905130221 | 73 | 64 | 1.7 | 3.5 | 0.00 | 0.00 | 0.00 | 98 | 1014.3 |
| 20260905125719 | 73 | 54 | 2.6 | 3.5 | 0.00 | 0.00 | 0.00 | 98 | 1014.0 |
| 20260905125220 | 73 | 65 | 1.7 | 5.2 | 0.00 | 0.00 | 0.00 | 98 | 1013.7 |
| 20260905124718 | 73 | 58 | 1.7 | 3.5 | 0.00 | 0.00 | 0.00 | 98 | 1013.7 |
| 20260905124220 | 73 | 22 | 0.9 | 3.5 | 0.00 | 0.00 | 0.00 | 98 | 1013.3 |
| 20260905123937 | 73 | 63 | 1.7 | 3.5 | 0.00 | 0.00 | 0.00 | 98 | 1013.7 |
| 20260905123218 | 73 | 111 | 1.7 | 3.5 | 0.00 | 0.00 | 0.00 | 98 | 1013.3 |
| 20260905122718 | 73 | 40 | 1.7 | 3.5 | 0.00 | 0.00 | 0.00 | 98 | 1013.3 |
| 20260905122217 | 73 | 38 | 0.0 | 1.7 | 0.00 | 0.00 | 0.00 | 98 | 1012.9 |
| 20260905121717 | 73 | 80 | 1.7 | 1.7 | 0.00 | 0.00 | 0.00 | 98 | 1012.9 |
| 20260905121214 | 73 | 124 | 0.9 | 3.5 | 0.00 | 0.00 | 0.00 | 98 | 1013.3 |
| 20260905120715 | 73 | 89 | 0.0 | 3.5 | 0.00 | 0.00 | 0.00 | 98 | 1012.9 |
| 20260905120448 | 73 | 96 | 1.7 | 2.6 | 0.00 | 0.00 | 0.00 | 98 | 1012.9 |
| 20260905115930 | 73 | 97 | 0.9 | 2.6 | 0.00 | 0.00 | 0.00 | 98 | 1012.9 |
| 20260905115215 | 73 | 343 | 0.0 | 2.6 | 0.00 | 0.00 | 0.00 | 98 | 1012.9 |
| 20260905114714 | 73 | 89 | 0.0 | 3.5 | 0.00 | 0.00 | 0.00 | 98 | 1012.9 |
| 20260905114212 | 73 | 25 | 0.0 | 3.5 | 0.00 | 0.00 | 0.00 | 98 | 1012.9 |
| 20260905113713 | 73 | 57 | 0.9 | 2.6 | 0.00 | 0.00 | 0.00 | 98 | 1012.5 |
| 20260905113212 | 73 | 50 | 0.0 | 2.6 | 0.00 | 0.00 | 0.00 | 98 | 1012.5 |
| 20260905112713 | 73 | 32 | 0.0 | 2.6 | 0.00 | 0.00 | 0.00 | 98 | 1012.5 |
| 20260905112436 | 73 | 67 | 1.7 | 2.6 | 0.00 | 0.00 | 0.00 | 98 | 1012.5 |
| 20260905111710 | 73 | 36 | 1.7 | 1.7 | 0.00 | 0.00 | 0.00 | 98 | 1012.5 |
| 20260905111209 | 73 | 21 | 0.9 | 1.7 | 0.00 | 0.00 | 0.00 | 98 | 1012.5 |
| 20260905110709 | 74 | 293 | 0.0 | 1.7 | 0.00 | 0.00 | 0.00 | 98 | 1012.2 |
| 20260905110208 | 74 | 32 | 0.0 | 1.7 | 0.00 | 0.00 | 0.00 | 98 | 1012.2 |
| 20260905105708 | 74 | 25 | 0.0 | 1.7 | 0.00 | 0.00 | 0.00 | 98 | 1012.2 |
| 20260905105427 | 74 | 29 | 0.0 | 3.5 | 0.00 | 0.00 | 0.00 | 98 | 1012.2 |
| 20260905105157 | 74 | 117 | 0.0 | 3.5 | 0.00 | 0.00 | 0.00 | 98 | 1012.2 |
| 20260905104206 | 74 | 23 | 0.0 | 2.6 | 0.00 | 0.00 | 0.00 | 98 | 1012.2 |
| 20260905103706 | 74 | 28 | 2.6 | 2.6 | 0.00 | 0.00 | 0.00 | 98 | 1012.2 |
| 20260905103205 | 74 | 349 | 1.7 | 1.7 | 0.00 | 0.00 | 0.00 | 98 | 1011.9 |
| 20260905102704 | 75 | 50 | 0.0 | 1.7 | 0.00 | 0.00 | 0.00 | 98 | 1012.2 |
| 20260905102648 | 75 | 341 | 0.0 | 1.7 | 0.00 | 0.00 | 0.00 | 98 | 1012.2 |
| 20260905101703 | 75 | 322 | 0.0 | 1.7 | 0.00 | 0.00 | 0.00 | 98 | 1012.2 |
| 20260905101203 | 75 | 322 | 0.0 | 1.7 | 0.00 | 0.00 | 0.00 | 98 | 1012.2 |
| 20260905100702 | 75 | 321 | 0.0 | 1.7 | 0.00 | 0.00 | 0.00 | 98 | 1012.2 |
| 20260905100645 | 75 | 17 | 0.0 | 1.7 | 0.00 | 0.00 | 0.00 | 98 | 1012.2 |
| 20260905095701 | 75 | 322 | 0.0 | 0.9 | 0.00 | 0.00 | 0.00 | 98 | 1012.5 |
| 20260905095201 | 75 | 242 | 0.0 | 0.9 | 0.00 | 0.00 | 0.00 | 98 | 1012.2 |
| 20260905094700 | 75 | 255 | 0.0 | 0.9 | 0.00 | 0.00 | 0.00 | 98 | 1012.2 |
| 20260905094159 | 75 | 322 | 0.0 | 0.0 | 0.00 | 0.00 | 0.00 | 98 | 1012.2 |
| 20260905093701 | 75 | 322 | 0.0 | 0.9 | 0.00 | 0.00 | 0.00 | 98 | 1011.9 |
| 20260905093159 | 75 | 314 | 0.0 | 0.9 | 0.00 | 0.00 | 0.00 | 98 | 1012.2 |
| 20260905092659 | 75 | 297 | 0.0 | 0.9 | 0.00 | 0.00 | 0.00 | 98 | 1012.2 |
| 20260905092157 | 75 | 0 | 0.9 | 1.7 | 0.00 | 0.00 | 0.00 | 98 | 1011.9 |
| 20260905091658 | 75 | 240 | 0.0 | 1.7 | 0.00 | 0.00 | 0.00 | 98 | 1011.9 |
| 20260905091424 | 75 | 226 | 0.9 | 1.7 | 0.00 | 0.00 | 0.00 | 98 | 1012.2 |
| 20260905090656 | 75 | 240 | 0.9 | 0.9 | 0.00 | 0.00 | 0.00 | 98 | 1012.2 |
| 20260905090156 | 75 | 301 | 0.0 | 1.7 | 0.00 | 0.00 | 0.00 | 98 | 1012.2 |
| 20260905085656 | 75 | 230 | 0.0 | 1.7 | 0.00 | 0.00 | 0.00 | 98 | 1012.2 |
| 20260905085154 | 75 | 287 | 1.7 | 1.7 | 0.00 | 0.00 | 0.00 | 98 | 1012.2 |
| 20260905084655 | 75 | 235 | 0.0 | 1.7 | 0.00 | 0.00 | 0.00 | 98 | 1011.9 |
| 20260905084633 | 75 | 239 | 0.0 | 1.7 | 0.00 | 0.00 | 0.00 | 98 | 1012.2 |
| 20260905083915 | 75 | 269 | 0.0 | 0.9 | 0.00 | 0.00 | 0.00 | 98 | 1011.9 |
| 20260905083154 | 75 | 242 | 0.0 | 0.9 | 0.00 | 0.00 | 0.00 | 98 | 1012.2 |
| 20260905082652 | 75 | 235 | 0.9 | 0.9 | 0.00 | 0.00 | 0.00 | 98 | 1012.2 |
| 20260905082153 | 75 | 309 | 0.0 | 0.9 | 0.00 | 0.00 | 0.00 | 98 | 1012.2 |
| 20260905081653 | 75 | 269 | 0.0 | 1.7 | 0.00 | 0.00 | 0.00 | 97 | 1012.2 |
| 20260905081151 | 75 | 239 | 0.9 | 1.7 | 0.00 | 0.00 | 0.00 | 97 | 1012.2 |
| 20260905080650 | 75 | 238 | 0.0 | 0.9 | 0.00 | 0.00 | 0.00 | 97 | 1011.9 |
| 20260905080149 | 75 | 255 | 0.0 | 1.7 | 0.00 | 0.00 | 0.00 | 97 | 1012.2 |
| 20260905075650 | 75 | 304 | 0.0 | 1.7 | 0.00 | 0.00 | 0.00 | 97 | 1012.2 |
| 20260905075150 | 75 | 309 | 0.0 | 0.9 | 0.00 | 0.00 | 0.00 | 97 | 1011.9 |
| 20260905074909 | 75 | 309 | 0.0 | 0.9 | 0.00 | 0.00 | 0.00 | 97 | 1012.2 |
| 20260905074150 | 75 | 309 | 0.0 | 0.9 | 0.00 | 0.00 | 0.00 | 97 | 1012.2 |
| 20260905073905 | 75 | 242 | 0.0 | 0.9 | 0.00 | 0.00 | 0.00 | 97 | 1012.2 |
| 20260905073146 | 75 | 269 | 0.0 | 0.9 | 0.00 | 0.00 | 0.00 | 97 | 1012.2 |
| 20260905072906 | 75 | 322 | 0.0 | 1.7 | 0.00 | 0.00 | 0.00 | 97 | 1012.2 |
| 20260905072145 | 75 | 237 | 0.0 | 1.7 | 0.00 | 0.00 | 0.00 | 97 | 1012.2 |
| 20260905071648 | 75 | 258 | 0.0 | 1.7 | 0.00 | 0.00 | 0.00 | 97 | 1012.2 |
| 20260905071158 | 75 | 283 | 0.0 | 1.7 | 0.00 | 0.00 | 0.00 | 96 | 1012.5 |
| 20260905070644 | 76 | 259 | 0.9 | 1.7 | 0.00 | 0.00 | 0.00 | 96 | 1012.2 |
| 20260905070143 | 76 | 235 | 0.9 | 0.9 | 0.00 | 0.00 | 0.00 | 96 | 1012.2 |
| 20260905065644 | 76 | 242 | 0.0 | 0.9 | 0.00 | 0.00 | 0.00 | 96 | 1012.5 |
| 20260905065402 | 76 | 205 | 0.9 | 1.7 | 0.00 | 0.00 | 0.00 | 96 | 1012.5 |
| 20260905064643 | 76 | 224 | 0.0 | 1.7 | 0.00 | 0.00 | 0.00 | 96 | 1012.5 |
| 20260905064411 | 76 | 242 | 0.9 | 1.7 | 0.00 | 0.00 | 0.00 | 96 | 1012.5 |
| 20260905063640 | 76 | 345 | 0.0 | 1.7 | 0.00 | 0.00 | 0.00 | 96 | 1012.2 |
| 20260905063406 | 76 | 22 | 0.0 | 1.7 | 0.00 | 0.00 | 0.00 | 96 | 1012.5 |
| 20260905062855 | 76 | 9 | 1.7 | 1.7 | 0.00 | 0.00 | 0.00 | 96 | 1012.5 |
| 20260905062139 | 76 | 315 | 0.0 | 1.7 | 0.00 | 0.00 | 0.00 | 96 | 1012.5 |
| 20260905061640 | 76 | 242 | 0.0 | 1.7 | 0.00 | 0.00 | 0.00 | 96 | 1012.5 |
| 20260905061138 | 76 | 6 | 0.0 | 1.7 | 0.00 | 0.00 | 0.00 | 96 | 1012.5 |
| 20260905060637 | 76 | 235 | 0.0 | 1.7 | 0.00 | 0.00 | 0.00 | 96 | 1012.5 |
| 20260905060359 | 76 | 183 | 1.7 | 1.7 | 0.00 | 0.00 | 0.00 | 96 | 1012.5 |
| 20260905055637 | 76 | 346 | 0.9 | 1.7 | 0.00 | 0.00 | 0.00 | 95 | 1012.5 |
| 20260905055135 | 77 | 205 | 0.0 | 1.7 | 0.00 | 0.00 | 0.00 | 95 | 1012.5 |
| 20260905054636 | 77 | 6 | 0.0 | 0.9 | 0.00 | 0.00 | 0.00 | 95 | 1012.5 |
| 20260905054136 | 77 | 32 | 0.0 | 0.9 | 0.00 | 0.00 | 0.00 | 95 | 1012.5 |
| 20260905053635 | 77 | 0 | 0.0 | 0.9 | 0.00 | 0.00 | 0.00 | 95 | 1012.5 |
| 20260905053401 | 77 | 29 | 0.0 | 0.9 | 0.00 | 0.00 | 0.00 | 94 | 1012.5 |
| 20260905052635 | 77 | 343 | 0.0 | 0.9 | 0.00 | 0.00 | 0.00 | 94 | 1012.5 |
| 20260905052136 | 78 | 322 | 0.0 | 0.9 | 0.00 | 0.00 | 0.00 | 93 | 1012.5 |
| 20260905051900 | 78 | 250 | 0.0 | 0.9 | 0.00 | 0.00 | 0.00 | 93 | 1012.2 |
| 20260905051133 | 78 | 297 | 0.0 | 0.0 | 0.00 | 0.00 | 0.00 | 93 | 1012.2 |
| 20260905050631 | 78 | 309 | 0.0 | 0.9 | 0.00 | 0.00 | 0.00 | 93 | 1012.5 |
| 20260905050131 | 78 | 305 | 0.0 | 0.9 | 0.00 | 0.00 | 0.00 | 92 | 1012.5 |
| 20260905045632 | 79 | 301 | 0.0 | 0.9 | 0.00 | 0.00 | 0.00 | 91 | 1012.5 |
| 20260905045132 | 79 | 310 | 0.0 | 0.9 | 0.00 | 0.00 | 0.00 | 91 | 1012.2 |
| 20260905044629 | 79 | 260 | 0.0 | 1.7 | 0.00 | 0.00 | 0.00 | 91 | 1012.5 |
| 20260905044351 | 79 | 287 | 0.0 | 1.7 | 0.00 | 0.00 | 0.00 | 90 | 1012.5 |
| 20260905043628 | 79 | 242 | 0.0 | 0.9 | 0.00 | 0.00 | 0.00 | 90 | 1012.5 |
| 20260905043128 | 80 | 336 | 0.0 | 1.7 | 0.00 | 0.00 | 0.00 | 90 | 1012.5 |
| 20260905042627 | 80 | 293 | 0.0 | 1.7 | 0.00 | 0.00 | 0.00 | 89 | 1012.2 |
| 20260905042127 | 80 | 228 | 0.9 | 1.7 | 0.00 | 0.00 | 0.00 | 89 | 1012.2 |
| 20260905041630 | 80 | 255 | 0.9 | 2.6 | 0.00 | 0.00 | 0.00 | 89 | 1012.2 |
| 20260905041127 | 80 | 269 | 0.9 | 2.6 | 0.00 | 0.00 | 0.00 | 88 | 1012.5 |
| 20260905040625 | 80 | 251 | 0.0 | 3.5 | 0.00 | 0.00 | 0.00 | 88 | 1012.2 |
| 20260905040127 | 80 | 240 | 1.7 | 3.5 | 0.00 | 0.00 | 0.00 | 88 | 1012.2 |
| 20260905035625 | 80 | 237 | 1.7 | 3.5 | 0.00 | 0.00 | 0.00 | 89 | 1012.2 |
| 20260905035126 | 80 | 232 | 0.9 | 2.6 | 0.00 | 0.00 | 0.00 | 89 | 1012.5 |
| 20260905034625 | 80 | 229 | 1.7 | 2.6 | 0.00 | 0.00 | 0.00 | 89 | 1012.5 |
| 20260905034124 | 80 | 233 | 1.7 | 2.6 | 0.00 | 0.00 | 0.00 | 89 | 1012.5 |
| 20260905033624 | 80 | 238 | 0.9 | 2.6 | 0.00 | 0.00 | 0.00 | 90 | 1012.5 |
| 20260905033121 | 80 | 248 | 0.9 | 2.6 | 0.00 | 0.00 | 0.00 | 90 | 1012.5 |
| 20260905032621 | 80 | 238 | 1.7 | 1.7 | 0.00 | 0.00 | 0.00 | 91 | 1012.5 |
| 20260905032123 | 79 | 250 | 0.9 | 1.7 | 0.00 | 0.00 | 0.00 | 91 | 1012.9 |
| 20260905031622 | 79 | 230 | 0.0 | 1.7 | 0.00 | 0.00 | 0.00 | 92 | 1012.5 |
| 20260905031121 | 79 | 226 | 0.0 | 1.7 | 0.00 | 0.00 | 0.00 | 92 | 1012.9 |
| 20260905030621 | 79 | 209 | 0.0 | 1.7 | 0.00 | 0.00 | 0.00 | 93 | 1012.9 |
| 20260905030121 | 79 | 199 | 0.0 | 1.7 | 0.00 | 0.00 | 0.00 | 93 | 1013.3 |
| 20260905025619 | 79 | 224 | 0.9 | 1.7 | 0.00 | 0.00 | 0.00 | 93 | 1012.9 |
| 20260905025120 | 79 | 212 | 0.0 | 1.7 | 0.00 | 0.00 | 0.00 | 93 | 1012.9 |
| 20260905024842 | 79 | 208 | 0.9 | 1.7 | 0.00 | 0.00 | 0.00 | 93 | 1012.9 |
| 20260905024118 | 79 | 233 | 0.0 | 1.7 | 0.00 | 0.00 | 0.00 | 94 | 1012.9 |
| 20260905023618 | 79 | 317 | 0.9 | 1.7 | 0.00 | 0.00 | 0.00 | 94 | 1013.3 |
| 20260905023344 | 79 | 336 | 0.0 | 0.9 | 0.00 | 0.00 | 0.00 | 93 | 1013.3 |
| 20260905022615 | 79 | 336 | 0.0 | 0.9 | 0.00 | 0.00 | 0.00 | 93 | 1012.9 |
| 20260905022115 | 79 | 359 | 0.9 | 0.9 | 0.00 | 0.00 | 0.00 | 93 | 1013.3 |
| 20260905021614 | 79 | 297 | 0.0 | 0.9 | 0.00 | 0.00 | 0.00 | 93 | 1012.5 |
| 20260905021341 | 79 | 224 | 0.0 | 0.9 | 0.00 | 0.00 | 0.00 | 93 | 1012.9 |
| 20260905020616 | 79 | 242 | 0.0 | 0.9 | 0.00 | 0.00 | 0.00 | 92 | 1012.9 |
| 20260905020114 | 79 | 284 | 0.0 | 0.9 | 0.00 | 0.00 | 0.00 | 92 | 1012.9 |
| 20260905015612 | 80 | 324 | 0.0 | 0.9 | 0.00 | 0.00 | 0.00 | 92 | 1012.5 |
| 20260905015113 | 80 | 333 | 0.0 | 0.9 | 0.00 | 0.00 | 0.00 | 92 | 1012.5 |
| 20260905014612 | 80 | 333 | 0.0 | 0.0 | 0.00 | 0.00 | 0.00 | 91 | 1012.5 |
| 20260905014110 | 80 | 309 | 0.0 | 0.0 | 0.00 | 0.00 | 0.00 | 91 | 1012.5 |
| 20260905013611 | 80 | 309 | 0.0 | 0.9 | 0.00 | 0.00 | 0.00 | 91 | 1012.5 |
| 20260905013110 | 80 | 322 | 0.0 | 0.9 | 0.00 | 0.00 | 0.00 | 90 | 1012.2 |
| 20260905012609 | 80 | 326 | 0.0 | 0.9 | 0.00 | 0.00 | 0.00 | 90 | 1012.2 |
| 20260905012110 | 81 | 304 | 0.0 | 0.9 | 0.00 | 0.00 | 0.00 | 90 | 1011.9 |
| 20260905011623 | 81 | 242 | 0.0 | 0.0 | 0.00 | 0.00 | 0.00 | 89 | 1012.2 |
| 20260905011109 | 81 | 217 | 0.0 | 0.9 | 0.00 | 0.00 | 0.00 | 89 | 1012.2 |
| 20260905010837 | 81 | 246 | 0.0 | 0.9 | 0.00 | 0.00 | 0.00 | 88 | 1011.9 |
| 20260905010119 | 81 | 230 | 0.0 | 0.9 | 0.00 | 0.00 | 0.00 | 88 | 1011.9 |
| 20260905005606 | 82 | 297 | 0.0 | 0.0 | 0.00 | 0.00 | 0.00 | 88 | 1011.5 |
| 20260905005106 | 82 | 242 | 0.0 | 1.7 | 0.00 | 0.00 | 0.00 | 87 | 1011.9 |
| 20260905004610 | 82 | 217 | 0.9 | 1.7 | 0.00 | 0.00 | 0.00 | 87 | 1011.9 |
| 20260905004105 | 82 | 257 | 0.0 | 1.7 | 0.00 | 0.00 | 0.00 | 86 | 1011.5 |
| 20260905003607 | 83 | 257 | 0.0 | 1.7 | 0.00 | 0.00 | 0.00 | 86 | 1011.9 |
| 20260905003104 | 83 | 325 | 0.9 | 0.9 | 0.00 | 0.00 | 0.00 | 85 | 1011.9 |
| 20260905002829 | 83 | 329 | 0.0 | 0.9 | 0.00 | 0.00 | 0.00 | 85 | 1011.9 |
| 20260905002103 | 83 | 284 | 0.0 | 1.7 | 0.00 | 0.00 | 0.00 | 84 | 1011.9 |
| 20260905001601 | 83 | 285 | 0.0 | 1.7 | 0.00 | 0.00 | 0.00 | 84 | 1011.5 |
| 20260905001103 | 84 | 314 | 0.9 | 0.9 | 0.00 | 0.00 | 0.00 | 83 | 1011.9 |
| 20260905000601 | 84 | 321 | 0.0 | 1.7 | 0.00 | 0.00 | 0.00 | 82 | 1011.9 |
| 20260905000114 | 84 | 307 | 0.9 | 1.7 | 0.00 | 0.00 | 0.00 | 82 | 1011.9 |
| 20260904235601 | 85 | 274 | 0.9 | 1.7 | 0.00 | 0.00 | 0.00 | 82 | 1011.5 |
| 20260904235101 | 85 | 227 | 0.9 | 1.7 | 0.00 | 0.00 | 0.00 | 81 | 1011.5 |
| 20260904234820 | 85 | 304 | 0.9 | 1.7 | 0.00 | 0.00 | 0.00 | 80 | 1011.5 |
| 20260904234100 | 85 | 322 | 0.0 | 1.7 | 0.00 | 0.00 | 0.00 | 79 | 1011.5 |
| 20260904233559 | 86 | 233 | 0.9 | 1.7 | 0.00 | 0.00 | 0.00 | 79 | 1011.5 |
| 20260904233057 | 86 | 245 | 0.9 | 1.7 | 0.00 | 0.00 | 0.00 | 78 | 1011.9 |
| 20260904232558 | 86 | 238 | 1.7 | 1.7 | 0.00 | 0.00 | 0.00 | 77 | 1011.9 |
| 20260904232058 | 87 | 264 | 0.9 | 1.7 | 0.00 | 0.00 | 0.00 | 77 | 1011.9 |
| 20260904231557 | 87 | 272 | 1.7 | 1.7 | 0.00 | 0.00 | 0.00 | 76 | 1011.5 |
| 20260904231056 | 87 | 289 | 0.9 | 1.7 | 0.00 | 0.00 | 0.00 | 77 | 1011.9 |
| 20260904230555 | 87 | 266 | 0.9 | 3.5 | 0.00 | 0.00 | 0.00 | 76 | 1011.9 |
| 20260904230108 | 87 | 282 | 1.7 | 3.5 | 0.00 | 0.00 | 0.00 | 75 | 1011.9 |
| 20260904225553 | 87 | 269 | 0.0 | 2.6 | 0.00 | 0.00 | 0.00 | 75 | 1011.9 |
| 20260904225314 | 87 | 297 | 1.7 | 5.2 | 0.00 | 0.00 | 0.00 | 74 | 1012.2 |
| 20260904224556 | 87 | 267 | 1.7 | 5.2 | 0.00 | 0.00 | 0.00 | 74 | 1011.9 |
| 20260904224053 | 88 | 272 | 2.6 | 5.2 | 0.00 | 0.00 | 0.00 | 74 | 1011.9 |
| 20260904223552 | 88 | 236 | 1.7 | 5.2 | 0.00 | 0.00 | 0.00 | 74 | 1012.2 |
| 20260904223053 | 88 | 269 | 0.9 | 2.6 | 0.00 | 0.00 | 0.00 | 74 | 1012.2 |
| 20260904222810 | 88 | 273 | 1.7 | 3.5 | 0.00 | 0.00 | 0.00 | 73 | 1012.2 |
| 20260904221814 | 88 | 229 | 3.5 | 4.3 | 0.00 | 0.00 | 0.00 | 72 | 1012.2 |
| 20260904221049 | 88 | 244 | 2.6 | 4.3 | 0.00 | 0.00 | 0.00 | 72 | 1012.2 |
| 20260904220549 | 88 | 240 | 1.7 | 3.5 | 0.00 | 0.00 | 0.00 | 72 | 1011.9 |
| 20260904215547 | 88 | 234 | 1.7 | 4.3 | 0.00 | 0.00 | 0.00 | 71 | 1011.9 |
| 20260904215052 | 88 | 256 | 1.7 | 3.5 | 0.00 | 0.00 | 0.00 | 72 | 1012.2 |
| 20260904214550 | 88 | 249 | 2.6 | 3.5 | 0.00 | 0.00 | 0.00 | 71 | 1012.2 |
| 20260904214045 | 88 | 231 | 2.6 | 4.3 | 0.00 | 0.00 | 0.00 | 71 | 1012.2 |
| 20260904213547 | 88 | 269 | 1.7 | 5.2 | 0.00 | 0.00 | 0.00 | 69 | 1012.2 |
| 20260904213045 | 88 | 254 | 2.6 | 5.2 | 0.00 | 0.00 | 0.00 | 71 | 1011.9 |
| 20260904212547 | 88 | 231 | 2.6 | 3.5 | 0.00 | 0.00 | 0.00 | 69 | 1012.2 |
| 20260904212302 | 88 | 241 | 2.6 | 5.2 | 0.00 | 0.00 | 0.00 | 70 | 1011.9 |
| 20260904211544 | 88 | 143 | 2.6 | 5.2 | 0.00 | 0.00 | 0.00 | 70 | 1011.9 |
| 20260904211301 | 88 | 245 | 1.7 | 4.3 | 0.00 | 0.00 | 0.00 | 69 | 1011.9 |
| 20260904210543 | 88 | 245 | 1.7 | 4.3 | 0.00 | 0.00 | 0.00 | 68 | 1011.9 |
| 20260904210043 | 88 | 251 | 1.7 | 4.3 | 0.00 | 0.00 | 0.00 | 70 | 1011.9 |
| 20260904205543 | 88 | 247 | 1.7 | 3.5 | 0.00 | 0.00 | 0.00 | 70 | 1011.9 |
| 20260904205053 | 88 | 219 | 1.7 | 3.5 | 0.00 | 0.00 | 0.00 | 71 | 1011.9 |
| 20260904204541 | 88 | 240 | 1.7 | 4.3 | 0.00 | 0.00 | 0.00 | 70 | 1011.9 |
| 20260904204041 | 88 | 245 | 2.6 | 5.2 | 0.00 | 0.00 | 0.00 | 69 | 1011.9 |
| 20260904203539 | 88 | 242 | 2.6 | 5.2 | 0.00 | 0.00 | 0.00 | 68 | 1011.9 |
| 20260904203039 | 88 | 232 | 2.6 | 4.3 | 0.00 | 0.00 | 0.00 | 69 | 1011.9 |
| 20260904202538 | 88 | 243 | 2.6 | 4.3 | 0.00 | 0.00 | 0.00 | 68 | 1012.2 |
| 20260904202050 | 88 | 239 | 3.5 | 6.1 | 0.00 | 0.00 | 0.00 | 69 | 1012.2 |
| 20260904201538 | 88 | 188 | 1.7 | 6.1 | 0.00 | 0.00 | 0.00 | 68 | 1012.2 |
| 20260904201037 | 88 | 225 | 1.7 | 5.2 | 0.00 | 0.00 | 0.00 | 68 | 1012.5 |
| 20260904200537 | 88 | 204 | 2.6 | 7.0 | 0.00 | 0.00 | 0.00 | 68 | 1012.5 |
| 20260904200042 | 87 | 172 | 1.7 | 7.0 | 0.00 | 0.00 | 0.00 | 68 | 1012.5 |
| 20260904195536 | 87 | 231 | 3.5 | 7.0 | 0.00 | 0.00 | 0.00 | 68 | 1012.5 |
| 20260904195036 | 87 | 243 | 2.6 | 7.0 | 0.00 | 0.00 | 0.00 | 68 | 1012.5 |
| 20260904194758 | 87 | 180 | 1.7 | 4.3 | 0.00 | 0.00 | 0.00 | 68 | 1012.9 |
| 20260904194034 | 87 | 204 | 2.6 | 7.8 | 0.00 | 0.00 | 0.00 | 67 | 1012.9 |
| 20260904193533 | 87 | 162 | 3.5 | 7.8 | 0.00 | 0.00 | 0.00 | 67 | 1013.3 |
| 20260904193035 | 87 | 183 | 2.6 | 5.2 | 0.00 | 0.00 | 0.00 | 67 | 1013.3 |
| 20260904192532 | 87 | 171 | 4.3 | 5.2 | 0.00 | 0.00 | 0.00 | 66 | 1013.3 |
| 20260904192033 | 87 | 190 | 2.6 | 5.2 | 0.00 | 0.00 | 0.00 | 68 | 1013.7 |
| 20260904191531 | 87 | 173 | 3.5 | 5.2 | 0.00 | 0.00 | 0.00 | 67 | 1013.7 |
| 20260904191030 | 86 | 157 | 3.5 | 6.1 | 0.00 | 0.00 | 0.00 | 68 | 1013.3 |
| 20260904190529 | 85 | 254 | 1.7 | 7.0 | 0.00 | 0.00 | 0.00 | 69 | 1013.7 |
| 20260904190032 | 85 | 145 | 3.5 | 8.7 | 0.00 | 0.00 | 0.00 | 69 | 1013.7 |
| 20260904185530 | 85 | 87 | 1.7 | 8.7 | 0.00 | 0.00 | 0.00 | 69 | 1013.7 |
| 20260904185028 | 85 | 139 | 2.6 | 9.6 | 0.00 | 0.00 | 0.00 | 71 | 1013.7 |
| 20260904184530 | 84 | 158 | 5.2 | 9.6 | 0.00 | 0.00 | 0.00 | 69 | 1013.7 |
| 20260904184030 | 85 | 148 | 6.1 | 9.6 | 0.00 | 0.00 | 0.00 | 70 | 1014.0 |
| 20260904183527 | 84 | 124 | 2.6 | 8.7 | 0.00 | 0.00 | 0.00 | 69 | 1014.0 |
| 20260904183028 | 85 | 183 | 4.3 | 6.1 | 0.00 | 0.00 | 0.00 | 69 | 1014.3 |
| 20260904182526 | 84 | 182 | 2.6 | 8.7 | 0.00 | 0.00 | 0.00 | 73 | 1014.0 |
| 20260904182026 | 83 | 175 | 1.7 | 9.6 | 0.00 | 0.00 | 0.00 | 74 | 1014.0 |
| 20260904181526 | 83 | 124 | 2.6 | 9.6 | 0.00 | 0.00 | 0.00 | 73 | 1014.0 |
| 20260904181026 | 82 | 135 | 3.5 | 8.7 | 0.00 | 0.00 | 0.00 | 73 | 1014.0 |
| 20260904180525 | 82 | 107 | 7.0 | 9.6 | 0.00 | 0.00 | 0.00 | 74 | 1014.3 |
| 20260904180243 | 82 | 189 | 5.2 | 9.6 | 0.00 | 0.00 | 0.00 | 73 | 1014.0 |
| 20260904175748 | 83 | 172 | 6.1 | 9.6 | 0.00 | 0.00 | 0.00 | 74 | 1014.0 |
| 20260904175024 | 83 | 136 | 5.2 | 11.3 | 0.00 | 0.00 | 0.00 | 74 | 1014.3 |
| 20260904174742 | 83 | 215 | 2.6 | 11.3 | 0.00 | 0.00 | 0.00 | 74 | 1014.3 |
| 20260904174246 | 82 | 69 | 2.6 | 9.6 | 0.00 | 0.00 | 0.00 | 76 | 1014.3 |
| 20260904173522 | 82 | 86 | 4.3 | 10.4 | 0.00 | 0.00 | 0.00 | 75 | 1014.7 |
| 20260904173034 | 82 | 163 | 6.1 | 10.4 | 0.00 | 0.00 | 0.00 | 76 | 1014.7 |
| 20260904172749 | 81 | 158 | 3.5 | 10.4 | 0.00 | 0.00 | 0.00 | 79 | 1014.7 |
| 20260904172020 | 81 | 71 | 4.3 | 9.6 | 0.00 | 0.00 | 0.00 | 78 | 1015.0 |
| 20260904171519 | 80 | 162 | 7.0 | 9.6 | 0.00 | 0.00 | 0.00 | 78 | 1015.4 |
| 20260904171018 | 80 | 67 | 6.1 | 9.6 | 0.00 | 0.00 | 0.00 | 79 | 1015.4 |
| 20260904170520 | 80 | 68 | 6.1 | 9.6 | 0.00 | 0.00 | 0.00 | 80 | 1015.4 |
| 20260904170242 | 80 | 109 | 6.1 | 9.6 | 0.00 | 0.00 | 0.00 | 80 | 1016.0 |
| 20260904165517 | 79 | 73 | 3.5 | 9.6 | 0.00 | 0.00 | 0.00 | 81 | 1016.0 |
| 20260904165017 | 79 | 84 | 3.5 | 11.3 | 0.00 | 0.00 | 0.00 | 81 | 1016.0 |
| 20260904164516 | 79 | 154 | 2.6 | 11.3 | 0.00 | 0.00 | 0.00 | 81 | 1016.0 |
| 20260904164018 | 80 | 62 | 7.8 | 8.7 | 0.00 | 0.00 | 0.00 | 80 | 1016.4 |
| 20260904163515 | 79 | 129 | 3.5 | 9.6 | 0.00 | 0.00 | 0.00 | 81 | 1016.0 |
| 20260904163233 | 79 | 88 | 4.3 | 14.8 | 0.00 | 0.00 | 0.00 | 82 | 1015.7 |
| 20260904162739 | 79 | 123 | 5.2 | 14.8 | 0.00 | 0.00 | 0.00 | 82 | 1015.7 |
| 20260904162013 | 80 | 122 | 5.2 | 10.4 | 0.00 | 0.00 | 0.00 | 82 | 1015.7 |
| 20260904161515 | 80 | 88 | 4.3 | 10.4 | 0.00 | 0.00 | 0.00 | 82 | 1016.0 |
| 20260904161013 | 80 | 54 | 2.6 | 11.3 | 0.00 | 0.00 | 0.00 | 82 | 1015.7 |
| 20260904160514 | 80 | 118 | 6.1 | 11.3 | 0.00 | 0.00 | 0.00 | 81 | 1015.7 |
| 20260904160242 | 80 | 99 | 2.6 | 5.2 | 0.00 | 0.00 | 0.00 | 83 | 1015.7 |
| 20260904155510 | 80 | 87 | 3.5 | 8.7 | 0.00 | 0.00 | 0.00 | 82 | 1015.4 |
| 20260904155237 | 80 | 74 | 4.3 | 8.7 | 0.00 | 0.00 | 0.00 | 83 | 1015.7 |
| 20260904154509 | 80 | 71 | 7.8 | 8.7 | 0.00 | 0.00 | 0.00 | 82 | 1015.7 |
| 20260904154017 | 80 | 30 | 3.5 | 8.7 | 0.00 | 0.00 | 0.00 | 83 | 1015.4 |
| 20260904154009 | 80 | 32 | 3.5 | 7.8 | 0.00 | 0.00 | 0.00 | 82 | 1015.7 |
| 20260904153509 | 80 | 346 | 3.5 | 7.8 | 0.00 | 0.00 | 0.00 | 84 | 1015.4 |